• In Czech Republic
  • List of Countries
  • For 7 days
  • Water Temperature
  • Satellite Maps
  • Weather Map
  • Weather Widgets
  • user-avatar
    Login

    Hourly Weather Ustrzyki Dolne

    Today, 25 September, Tuesday

    Time Temperature Precipitation Wind Pressure Humidity
    00:00 +2°C° 0 mm 5 mps 716 mmHg 80%
    01:00 +2°C° 0 mm 5 mps 716 mmHg 81%
    02:00 +2°C° 0 mm 5 mps 717 mmHg 82%
    03:00 +1°C° 0 mm 4 mps 717 mmHg 83%
    04:00 +1°C° 0 mm 4 mps 717 mmHg 84%
    05:00 +1°C° 0 mm 4 mps 717 mmHg 85%
    06:00 +1°C° 0 mm 4 mps 718 mmHg 83%
    07:00 +1°C° 0 mm 5 mps 719 mmHg 82%
    08:00 +2°C° 0 mm 5 mps 719 mmHg 80%
    09:00 +3°C° 0.1 mm 5 mps 720 mmHg 75%
    10:00 +4°C° 0.1 mm 6 mps 720 mmHg 70%
    11:00 +5°C° 0.1 mm 6 mps 721 mmHg 65%
    12:00 +7°C° 0.2 mm 6 mps 721 mmHg 62%
    13:00 +7°C° 0.2 mm 6 mps 721 mmHg 58%
    14:00 +8°C° 0.2 mm 6 mps 722 mmHg 55%
    15:00 +8°C° 0.1 mm 5 mps 722 mmHg 57%
    16:00 +7°C° 0.1 mm 5 mps 722 mmHg 58%
    17:00 +7°C° 0.1 mm 4 mps 722 mmHg 60%
    18:00 +7°C° 0 mm 3 mps 723 mmHg 64%
    19:00 +4°C° 0 mm 3 mps 723 mmHg 69%
    20:00 +4°C° 0 mm 2 mps 723 mmHg 73%
    21:00 +4°C° 0 mm 2 mps 724 mmHg 74%
    22:00 +3°C° 0 mm 2 mps 724 mmHg 74%
    23:00 +3°C° 0 mm 2 mps 725 mmHg 74%

    Tomorrow, 26 September, Wednesday

    Time Temperature Precipitation Wind Pressure Humidity
    00:00 +2°C° 0 mm 2 mps 725 mmHg 76%
    01:00 +2°C° 0 mm 2 mps 725 mmHg 79%
    02:00 +1°C° 0 mm 2 mps 725 mmHg 81%
    03:00 +1°C° 0 mm 2 mps 725 mmHg 83%
    04:00 +2°C° 0 mm 1 mps 725 mmHg 85%
    05:00 +1°C° 0 mm 1 mps 725 mmHg 87%
    06:00 +2°C° 0 mm 1 mps 726 mmHg 83%
    07:00 +3°C° 0 mm 1 mps 726 mmHg 79%
    08:00 +4°C° 0 mm 1 mps 727 mmHg 75%
    09:00 +5°C° 0 mm 2 mps 727 mmHg 66%
    10:00 +7°C° 0 mm 2 mps 727 mmHg 57%
    11:00 +9°C° 0 mm 2 mps 727 mmHg 48%
    12:00 +10°C° 0 mm 2 mps 727 mmHg 45%
    13:00 +10°C° 0 mm 2 mps 726 mmHg 43%
    14:00 +12°C° 0 mm 2 mps 726 mmHg 40%
    15:00 +12°C° 0 mm 2 mps 725 mmHg 45%
    16:00 +11°C° 0 mm 1 mps 725 mmHg 49%
    17:00 +11°C° 0 mm 1 mps 724 mmHg 54%
    18:00 +10°C° 0 mm 1 mps 724 mmHg 56%
    19:00 +8°C° 0 mm 1 mps 724 mmHg 58%
    20:00 +7°C° 0 mm 1 mps 724 mmHg 60%
    21:00 +6°C° 0 mm 2 mps 724 mmHg 59%
    22:00 +6°C° 0 mm 2 mps 724 mmHg 58%
    23:00 +7°C° 0 mm 3 mps 724 mmHg 57%

    Day after tomorrow, 27 September, Thursday

    Time Temperature Precipitation Wind Pressure Humidity
    00:00 +7°C° 0 mm 3 mps 723 mmHg 58%
    01:00 +7°C° 0 mm 3 mps 723 mmHg 59%
    02:00 +7°C° 0 mm 3 mps 723 mmHg 61%
    03:00 +5°C° 0 mm 3 mps 722 mmHg 61%
    04:00 +5°C° 0 mm 3 mps 722 mmHg 61%
    05:00 +4°C° 0 mm 4 mps 722 mmHg 62%
    06:00 +5°C° 0 mm 4 mps 722 mmHg 60%
    07:00 +6°C° 0 mm 4 mps 722 mmHg 58%
    08:00 +6°C° 0 mm 4 mps 722 mmHg 55%
    09:00 +8°C° 0 mm 4 mps 722 mmHg 53%
    10:00 +10°C° 0 mm 4 mps 722 mmHg 51%
    11:00 +10°C° 0 mm 5 mps 722 mmHg 48%
    12:00 +12°C° 0 mm 4 mps 722 mmHg 48%
    13:00 +14°C° 0 mm 4 mps 722 mmHg 47%
    14:00 +15°C° 0 mm 4 mps 721 mmHg 47%
    15:00 +14°C° 0 mm 4 mps 721 mmHg 50%
    16:00 +14°C° 0 mm 3 mps 721 mmHg 54%
    17:00 +14°C° 0 mm 3 mps 720 mmHg 57%
    18:00 +12°C° 0 mm 3 mps 720 mmHg 59%
    19:00 +10°C° 0 mm 3 mps 720 mmHg 61%
    20:00 +9°C° 0 mm 3 mps 720 mmHg 63%
    21:00 +8°C° 0 mm 2 mps 720 mmHg 63%
    22:00 +8°C° 0 mm 2 mps 720 mmHg 63%
    23:00 +8°C° 0 mm 2 mps 720 mmHg 63%

    28 September, Friday

    Time Temperature Precipitation Wind Pressure Humidity
    00:00 +8°C° 0 mm 2 mps 719 mmHg 63%
    01:00 +7°C° 0 mm 2 mps 719 mmHg 63%
    02:00 +7°C° 0 mm 2 mps 719 mmHg 63%
    03:00 +7°C° 0 mm 2 mps 718 mmHg 64%
    04:00 +7°C° 0 mm 2 mps 718 mmHg 65%
    05:00 +7°C° 0 mm 2 mps 717 mmHg 65%
    06:00 +8°C° 0 mm 2 mps 717 mmHg 65%
    07:00 +9°C° 0 mm 2 mps 717 mmHg 64%
    08:00 +10°C° 0 mm 2 mps 717 mmHg 63%
    09:00 +12°C° 0 mm 3 mps 717 mmHg 58%
    10:00 +14°C° 0 mm 3 mps 717 mmHg 52%
    11:00 +17°C° 0 mm 4 mps 717 mmHg 47%
    12:00 +17°C° 0 mm 4 mps 716 mmHg 46%
    13:00 +18°C° 0 mm 4 mps 716 mmHg 45%
    14:00 +19°C° 0 mm 4 mps 715 mmHg 44%
    15:00 +18°C° 0 mm 4 mps 715 mmHg 48%
    16:00 +17°C° 0 mm 3 mps 714 mmHg 52%
    17:00 +17°C° 0 mm 2 mps 714 mmHg 56%
    18:00 +15°C° 0 mm 2 mps 714 mmHg 59%
    19:00 +13°C° 0 mm 2 mps 714 mmHg 62%
    20:00 +10°C° 0 mm 2 mps 714 mmHg 66%
    21:00 +10°C° 0 mm 2 mps 714 mmHg 67%
    22:00 +10°C° 0 mm 1 mps 714 mmHg 68%
    23:00 +10°C° 0 mm 1 mps 714 mmHg 70%

    29 September, Saturday

    Time Temperature Precipitation Wind Pressure Humidity
    00:00 +9°C° 0 mm 1 mps 714 mmHg 73%
    01:00 +9°C° 0 mm 1 mps 714 mmHg 75%
    02:00 +9°C° 0 mm 1 mps 714 mmHg 78%
    03:00 +8°C° 0 mm 1 mps 714 mmHg 81%
    04:00 +8°C° 0 mm 1 mps 714 mmHg 85%
    05:00 +8°C° 0 mm 1 mps 714 mmHg 89%
    06:00 +7°C° 0 mm 2 mps 714 mmHg 87%
    07:00 +8°C° 0 mm 2 mps 715 mmHg 86%
    08:00 +9°C° 0 mm 2 mps 715 mmHg 85%
    09:00 +9°C° 0 mm 2 mps 716 mmHg 78%
    10:00 +10°C° 0 mm 3 mps 716 mmHg 72%
    11:00 +11°C° 0 mm 4 mps 716 mmHg 65%
    12:00 +11°C° 0 mm 4 mps 716 mmHg 61%
    13:00 +12°C° 0 mm 4 mps 717 mmHg 57%
    14:00 +12°C° 0 mm 4 mps 717 mmHg 54%
    15:00 +12°C° 0 mm 4 mps 717 mmHg 56%
    16:00 +11°C° 0 mm 4 mps 717 mmHg 58%
    17:00 +11°C° 0 mm 4 mps 717 mmHg 61%
    18:00 +8°C° 0 mm 4 mps 717 mmHg 66%
    19:00 +8°C° 0 mm 3 mps 718 mmHg 72%
    20:00 +7°C° 0 mm 3 mps 718 mmHg 78%
    21:00 +5°C° 0 mm 3 mps 718 mmHg 80%
    22:00 +5°C° 0 mm 3 mps 718 mmHg 81%
    23:00 +4°C° 0 mm 3 mps 718 mmHg 83%

    30 September, Sunday

    Time Temperature Precipitation Wind Pressure Humidity
    00:00 +4°C° 0 mm 3 mps 718 mmHg 84%
    01:00 +3°C° 0 mm 3 mps 718 mmHg 85%
    02:00 +4°C° 0 mm 2 mps 718 mmHg 86%
    03:00 +4°C° 0 mm 2 mps 718 mmHg 86%
    04:00 +3°C° 0 mm 2 mps 718 mmHg 87%
    05:00 +3°C° 0 mm 2 mps 718 mmHg 87%
    06:00 +4°C° 0 mm 2 mps 718 mmHg 85%
    07:00 +4°C° 0 mm 2 mps 718 mmHg 82%
    08:00 +5°C° 0 mm 2 mps 718 mmHg 80%
    09:00 +6°C° 0 mm 2 mps 718 mmHg 75%
    10:00 +8°C° 0 mm 2 mps 718 mmHg 71%
    11:00 +10°C° 0 mm 2 mps 718 mmHg 66%
    12:00 +12°C° 0 mm 2 mps 718 mmHg 65%
    13:00 +13°C° 0 mm 2 mps 717 mmHg 63%
    14:00 +13°C° 0 mm 2 mps 717 mmHg 62%
    15:00 +13°C° 0 mm 2 mps 717 mmHg 65%
    16:00 +13°C° 0 mm 2 mps 716 mmHg 68%
    17:00 +13°C° 0 mm 1 mps 716 mmHg 71%
    18:00 +11°C° 0 mm 1 mps 716 mmHg 76%
    19:00 +10°C° 0 mm 1 mps 716 mmHg 82%
    20:00 +8°C° 0 mm 1 mps 715 mmHg 87%
    21:00 +8°C° 0 mm 1 mps 715 mmHg 88%
    22:00 +8°C° 0 mm 1 mps 715 mmHg 88%
    23:00 +8°C° 0 mm 1 mps 715 mmHg 89%
    Show more